Regional Weather Roundup
Issued by NWS Burlington, VT

Home | Current Version | Previous Version | Text Only | Print | Product List | Glossary On
Versions: 1 2 3 4 5 6 7 8 9 10 11 12 13 14 15 16 17 18 19 20 21 22 23 24 25 26 27 28 29 30 31 32 33 34 35 36 37 38 39 40 41 42 43 44 45 46 47 48 49 50
000
ASUS41 KBTV 050530
RWRBTV
VERMONT REGIONAL WEATHER ROUNDUP
NATIONAL WEATHER SERVICE BURLINGTON VT
100 AM EDT THU MAY 05 2016

NOTE: "FAIR" INDICATES FEW OR NO CLOUDS BELOW 12,000 FEET WITH NO
SIGNIFICANT WEATHER AND/OR OBSTRUCTIONS TO VISIBILITY.

* THESE REPORTS ARE NOT UNDER NWS QUALITY CONTROL AND/OR DO NOT
  REPORT WEATHER SUCH AS PRECIPITATION AND FOG.

VTZ001>019-050600-
_____VERMONT_____


CITY           SKY/WX    TMP DP  RH WIND       PRES   REMARKS
BURLINGTON     CLOUDY    48  45  89 CALM      29.82S
MONTPELIER     CLOUDY    44  42  93 CALM      29.85F FOG
MORRISVILLE    CLOUDY    44  43  96 N3        29.84S
ST. JOHNSBURY*   N/A     45  43  93 MISG      29.81F
LYNDONVILLE*   CLOUDY    44  41  89 N3        29.83F
MIDDLEBURY*    CLOUDY    46  46 100 CALM      29.81S
RUTLAND*       CLOUDY    46  42  86 CALM      29.81F
SPRINGFIELD    CLOUDY    44  41  89 E5        29.84R
HIGHGATE*      FAIR      44  44  99 CALM      29.83S
NEWPORT*       CLOUDY    44  40  86 CALM      29.83F
BENNINGTON     CLOUDY    46  41  82 CALM      29.77F
SUTTON*          N/A     43 N/A N/A MISG        N/A
GALLUP MILLS*    N/A     43 N/A N/A MISG        N/A
UNION VILLAGE*   N/A     45 N/A N/A MISG        N/A
MT. MANSFIELD*   N/A     34 N/A N/A SW13        N/A  WCI  25

_____LAKE CHAMPLAIN_____


CITY           SKY/WX    TMP DP  RH WIND       PRES   REMARKS
COLCHESTER RF*   N/A     46  46 100 S1          N/A
DIAMOND ISL*     N/A     46  46 100 NW2         N/A

$$

NYZ007-026>031-035-052-083-087-050600-
_____NORTHERN NEW YORK_____


CITY           SKY/WX    TMP DP  RH WIND       PRES   REMARKS
PLATTSBURGH    FOG       43  42  97 CALM      29.82F VSB 1/2
SARANAC LAKE   CLOUDY    42  40  92 CALM      29.78S
MASSENA        CLOUDY    50  44  80 E6        29.82S
OGDENSBURG*    PTCLDY    50  46  87 CALM      29.79F
POTSDAM*       CLOUDY    48  48 100 SE3       29.80
STARK FALLS*     N/A     48 N/A N/A E3          N/A
WATERTOWN      CLOUDY    49  48  97 CALM      29.77S
FT DRUM        PTCLDY    48  46  94 E3        29.77S
ALBANY         CLOUDY    48  44  86 N3        29.79F
GLENS FALLS    CLOUDY    48  43  82 N3        29.80F

$$
NHZ002-005-011-050600-
_____NEW HAMPSHIRE_____


CITY           SKY/WX    TMP DP  RH WIND       PRES   REMARKS
LEBANON        CLOUDY    45  40  82 CALM      29.82F
KEENE          CLOUDY    45  39  81 NE5       29.81F
MT WASHINGTON  LGTSLEET  27  27 100 NE15        N/A  VSB 1/16WCI  15
PLYMOUTH       CLOUDY    43  41  93 SE3       29.83F
WHITEFIELD     CLOUDY    46  40  79 NE7       29.82F

$$

_____REGIONAL QUEBEC LOCATIONS_____


CITY           SKY/WX    TMP DP  RH WIND       PRES   REMARKS
MONTREAL       PTCLDY    48  41  76 CALM      29.83F
QUEBEC CITY    PTCLDY    43  36  75 NE7       29.90F
SHERBROOKE     CLOUDY    45  41  87 E5        29.85R

_____REGIONAL ONTARIO LOCATIONS_____


CITY           SKY/WX    TMP DP  RH WIND       PRES   REMARKS
OTTAWA         CLOUDY    48  46  93 NE10      29.82S

______KEY______
VSB  - VISIBILITY IN MILES
WCI  - WIND CHILL INDEX
HX   - HEAT INDEX
$$
NNNN




USA.gov is the U.S. government's official web portal to all federal, state and local government web resources and services.